Time,TemperatureF,DewpointF,PressureIn,WindDirection,WindDirectionDegrees,WindSpeedMPH,WindSpeedGustMPH,Humidity,HourlyPrecipIn,Conditions,Clouds,dailyrainin,SoftwareType,DateUTC
2013-03-20 00:02:00,15.0,3.0,-100.00,NNW,330,13.0,21.0,60,-99.99,,,-99.99,,2013-03-20 05:02:00,
2013-03-20 00:12:00,15.0,3.0,-100.00,NNW,330,13.0,21.0,60,-99.99,,,-99.99,,2013-03-20 05:12:00,
2013-03-20 00:23:00,15.0,3.0,-100.00,NNW,330,13.0,21.0,60,-99.99,,,-99.99,,2013-03-20 05:23:00,
2013-03-20 00:32:00,15.0,3.0,-100.00,NNW,330,13.0,21.0,60,-99.99,,,-99.99,,2013-03-20 05:32:00,
2013-03-20 01:02:00,12.0,6.0,-100.00,NNW,330,7.0,16.0,74,-99.99,,,-99.99,,2013-03-20 06:02:00,
2013-03-20 01:12:00,12.0,6.0,-100.00,NNW,330,7.0,16.0,74,-99.99,,,-99.99,,2013-03-20 06:12:00,
2013-03-20 01:22:00,12.0,6.0,-100.00,NNW,330,7.0,16.0,74,-99.99,,,-99.99,,2013-03-20 06:22:00,
2013-03-20 01:32:00,12.0,6.0,-100.00,NNW,330,7.0,16.0,74,-99.99,,,-99.99,,2013-03-20 06:32:00,
2013-03-20 02:02:00,11.0,4.0,-100.00,NW,315,7.0,14.0,74,-99.99,,,-99.99,,2013-03-20 07:02:00,
2013-03-20 02:12:00,11.0,4.0,-100.00,NW,315,7.0,14.0,74,-99.99,,,-99.99,,2013-03-20 07:12:00,
2013-03-20 02:22:00,11.0,4.0,-100.00,NW,315,7.0,14.0,74,-99.99,,,-99.99,,2013-03-20 07:22:00,
2013-03-20 02:32:00,11.0,4.0,-100.00,NW,315,7.0,14.0,74,-99.99,,,-99.99,,2013-03-20 07:32:00,
2013-03-20 02:52:00,9.0,2.0,-100.00,NW,305,7.0,14.0,74,-99.99,,,-99.99,,2013-03-20 07:52:00,
2013-03-20 03:02:00,9.0,2.0,-100.00,NW,305,7.0,14.0,74,-99.99,,,-99.99,,2013-03-20 08:02:00,
2013-03-20 03:12:00,9.0,2.0,-100.00,NW,305,7.0,14.0,74,-99.99,,,-99.99,,2013-03-20 08:12:00,
2013-03-20 03:22:00,9.0,2.0,-100.00,NW,305,7.0,14.0,74,-99.99,,,-99.99,,2013-03-20 08:22:00,
2013-03-20 03:32:00,9.0,2.0,-100.00,NW,305,7.0,14.0,74,-99.99,,,-99.99,,2013-03-20 08:32:00,
2013-03-20 04:02:00,7.0,0.0,-100.00,NW,305,6.0,16.0,72,-99.99,,,-99.99,,2013-03-20 09:02:00,
2013-03-20 04:12:00,7.0,0.0,-100.00,NW,305,6.0,16.0,72,-99.99,,,-99.99,,2013-03-20 09:12:00,
2013-03-20 04:22:00,7.0,0.0,-100.00,NW,305,6.0,16.0,72,-99.99,,,-99.99,,2013-03-20 09:22:00,
2013-03-20 04:33:00,7.0,0.0,-100.00,NW,305,6.0,16.0,72,-99.99,,,-99.99,,2013-03-20 09:33:00,
2013-03-20 05:03:00,5.0,-1.0,-100.00,NW,305,9.0,17.0,74,-99.99,,,-99.99,,2013-03-20 10:03:00,
2013-03-20 05:12:00,5.0,-1.0,-100.00,NW,305,9.0,17.0,74,-99.99,,,-99.99,,2013-03-20 10:12:00,
2013-03-20 05:23:00,5.0,-1.0,-100.00,NW,305,9.0,17.0,74,-99.99,,,-99.99,,2013-03-20 10:23:00,
2013-03-20 05:32:00,5.0,-1.0,-100.00,NW,305,9.0,17.0,74,-99.99,,,-99.99,,2013-03-20 10:32:00,
2013-03-20 06:03:00,4.0,-2.0,-100.00,NW,310,4.0,12.0,75,-99.99,,,-99.99,,2013-03-20 11:03:00,
2013-03-20 06:12:00,4.0,-2.0,-100.00,NW,310,4.0,12.0,75,-99.99,,,-99.99,,2013-03-20 11:12:00,
2013-03-20 06:22:00,4.0,-2.0,-100.00,NW,310,4.0,12.0,75,-99.99,,,-99.99,,2013-03-20 11:22:00,
2013-03-20 06:32:00,4.0,-2.0,-100.00,NW,310,4.0,12.0,75,-99.99,,,-99.99,,2013-03-20 11:32:00,
2013-03-20 07:02:00,3.0,-2.0,-100.00,WNW,290,6.0,14.0,79,-99.99,,,-99.99,,2013-03-20 12:02:00,
2013-03-20 07:12:00,3.0,-2.0,-100.00,WNW,290,6.0,14.0,79,-99.99,,,-99.99,,2013-03-20 12:12:00,
2013-03-20 07:22:00,3.0,-2.0,-100.00,WNW,290,6.0,14.0,79,-99.99,,,-99.99,,2013-03-20 12:22:00,
2013-03-20 07:32:00,3.0,-2.0,-100.00,WNW,290,6.0,14.0,79,-99.99,,,-99.99,,2013-03-20 12:32:00,
2013-03-20 08:03:00,2.0,-2.0,-100.00,WNW,295,3.0,11.0,81,-99.99,,,-99.99,,2013-03-20 13:03:00,
2013-03-20 08:12:00,2.0,-2.0,-100.00,WNW,295,3.0,11.0,81,-99.99,,,-99.99,,2013-03-20 13:12:00,
2013-03-20 08:22:00,2.0,-2.0,-100.00,WNW,295,3.0,11.0,81,-99.99,,,-99.99,,2013-03-20 13:22:00,
2013-03-20 08:32:00,2.0,-2.0,-100.00,WNW,295,3.0,11.0,81,-99.99,,,-99.99,,2013-03-20 13:32:00,
2013-03-20 09:03:00,6.0,0.0,-100.00,NW,310,7.0,14.0,79,-99.99,,,-99.99,,2013-03-20 14:03:00,
2013-03-20 09:12:00,6.0,0.0,-100.00,NW,310,7.0,14.0,79,-99.99,,,-99.99,,2013-03-20 14:12:00,
2013-03-20 09:23:00,6.0,0.0,-100.00,NW,310,7.0,14.0,79,-99.99,,,-99.99,,2013-03-20 14:23:00,
2013-03-20 09:33:00,6.0,0.0,-100.00,NW,310,7.0,14.0,79,-99.99,,,-99.99,,2013-03-20 14:33:00,
2013-03-20 10:02:00,9.0,2.0,-100.00,NW,325,14.0,24.0,73,-99.99,,,-99.99,,2013-03-20 15:02:00,
2013-03-20 10:12:00,9.0,2.0,-100.00,NW,325,14.0,24.0,73,-99.99,,,-99.99,,2013-03-20 15:12:00,
2013-03-20 10:22:00,9.0,2.0,-100.00,NW,325,14.0,24.0,73,-99.99,,,-99.99,,2013-03-20 15:22:00,
2013-03-20 10:33:00,9.0,2.0,-100.00,NW,325,14.0,24.0,73,-99.99,,,-99.99,,2013-03-20 15:33:00,
2013-03-20 11:03:00,11.0,2.0,-100.00,NNW,340,14.0,23.0,67,-99.99,,,-99.99,,2013-03-20 16:03:00,
2013-03-20 11:12:00,11.0,2.0,-100.00,NNW,340,14.0,23.0,67,-99.99,,,-99.99,,2013-03-20 16:12:00,
2013-03-20 11:23:00,11.0,2.0,-100.00,NNW,340,14.0,23.0,67,-99.99,,,-99.99,,2013-03-20 16:23:00,
2013-03-20 11:32:00,11.0,2.0,-100.00,NNW,340,14.0,23.0,67,-99.99,,,-99.99,,2013-03-20 16:32:00,
2013-03-20 12:03:00,14.0,3.0,-100.00,NNW,345,11.0,24.0,61,-99.99,,,-99.99,,2013-03-20 17:03:00,
2013-03-20 12:12:00,14.0,3.0,-100.00,NNW,345,11.0,24.0,61,-99.99,,,-99.99,,2013-03-20 17:12:00,
2013-03-20 12:22:00,14.0,3.0,-100.00,NNW,345,11.0,24.0,61,-99.99,,,-99.99,,2013-03-20 17:22:00,
2013-03-20 12:32:00,14.0,3.0,-100.00,NNW,345,11.0,24.0,61,-99.99,,,-99.99,,2013-03-20 17:32:00,
2013-03-20 13:02:00,16.0,3.0,-100.00,NW,325,13.0,25.0,56,-99.99,,,-99.99,,2013-03-20 18:02:00,
2013-03-20 13:11:00,16.0,3.0,-100.00,NNW,335,14.0,24.0,56,-99.99,,,-99.99,,2013-03-20 18:11:00,
2013-03-20 13:12:00,16.0,3.0,-100.00,NW,325,13.0,25.0,56,-99.99,,,-99.99,,2013-03-20 18:12:00,
2013-03-20 13:22:00,16.0,3.0,-100.00,NW,325,13.0,25.0,56,-99.99,,,-99.99,,2013-03-20 18:22:00,
2013-03-20 13:33:00,16.0,3.0,-100.00,NNW,335,14.0,24.0,56,-99.99,,,-99.99,,2013-03-20 18:33:00,
2013-03-20 13:43:00,16.0,3.0,-100.00,NNW,335,14.0,24.0,56,-99.99,,,-99.99,,2013-03-20 18:43:00,
2013-03-20 13:53:00,16.0,3.0,-100.00,NNW,335,14.0,24.0,56,-99.99,,,-99.99,,2013-03-20 18:53:00,
2013-03-20 14:02:00,16.0,3.0,-100.00,NNW,335,14.0,24.0,56,-99.99,,,-99.99,,2013-03-20 19:02:00,
2013-03-20 14:11:00,16.0,2.0,-100.00,North,0,11.0,24.0,53,-99.99,,,-99.99,,2013-03-20 19:11:00,
2013-03-20 14:33:00,16.0,2.0,-100.00,North,0,11.0,24.0,53,-99.99,,,-99.99,,2013-03-20 19:33:00,
2013-03-20 14:42:00,16.0,2.0,-100.00,North,0,11.0,24.0,53,-99.99,,,-99.99,,2013-03-20 19:42:00,
2013-03-20 14:53:00,16.0,2.0,-100.00,North,0,11.0,24.0,53,-99.99,,,-99.99,,2013-03-20 19:53:00,
2013-03-20 15:02:00,16.0,2.0,-100.00,North,0,11.0,24.0,53,-99.99,,,-99.99,,2013-03-20 20:02:00,
2013-03-20 15:12:00,16.0,2.0,-100.00,NNW,335,14.0,22.0,53,-99.99,,,-99.99,,2013-03-20 20:12:00,
2013-03-20 15:32:00,16.0,2.0,-100.00,NNW,335,14.0,22.0,53,-99.99,,,-99.99,,2013-03-20 20:32:00,
2013-03-20 15:43:00,16.0,2.0,-100.00,NNW,335,14.0,22.0,53,-99.99,,,-99.99,,2013-03-20 20:43:00,
2013-03-20 15:53:00,16.0,2.0,-100.00,NNW,335,14.0,22.0,53,-99.99,,,-99.99,,2013-03-20 20:53:00,
2013-03-20 16:02:00,16.0,2.0,-100.00,NNW,335,14.0,22.0,53,-99.99,,,-99.99,,2013-03-20 21:02:00,
2013-03-20 16:12:00,16.0,3.0,-100.00,NW,325,11.0,18.0,55,-99.99,,,-99.99,,2013-03-20 21:12:00,
2013-03-20 16:33:00,16.0,3.0,-100.00,NW,325,11.0,18.0,55,-99.99,,,-99.99,,2013-03-20 21:33:00,
2013-03-20 16:42:00,16.0,3.0,-100.00,NW,325,11.0,18.0,55,-99.99,,,-99.99,,2013-03-20 21:42:00,
2013-03-20 16:53:00,16.0,3.0,-100.00,NW,325,11.0,18.0,55,-99.99,,,-99.99,,2013-03-20 21:53:00,
2013-03-20 17:03:00,16.0,3.0,-100.00,NW,325,11.0,18.0,55,-99.99,,,-99.99,,2013-03-20 22:03:00,
2013-03-20 17:33:00,16.0,3.0,-100.00,NNW,340,13.0,20.0,56,-99.99,,,-99.99,,2013-03-20 22:33:00,
2013-03-20 17:43:00,16.0,3.0,-100.00,NNW,340,13.0,20.0,56,-99.99,,,-99.99,,2013-03-20 22:43:00,
2013-03-20 17:53:00,16.0,3.0,-100.00,NNW,340,13.0,20.0,56,-99.99,,,-99.99,,2013-03-20 22:53:00,
2013-03-20 18:02:00,16.0,3.0,-100.00,NNW,340,13.0,20.0,56,-99.99,,,-99.99,,2013-03-20 23:02:00,
2013-03-20 18:12:00,16.0,3.0,-100.00,NNW,340,13.0,20.0,56,-99.99,,,-99.99,,2013-03-20 23:12:00,
2013-03-20 18:33:00,16.0,3.0,-100.00,NNW,330,12.0,19.0,56,-99.99,,,-99.99,,2013-03-20 23:33:00,
2013-03-20 18:43:00,16.0,3.0,-100.00,NNW,330,12.0,19.0,56,-99.99,,,-99.99,,2013-03-20 23:43:00,
2013-03-20 18:53:00,16.0,3.0,-100.00,NNW,330,12.0,19.0,56,-99.99,,,-99.99,,2013-03-20 23:53:00,
2013-03-20 19:02:00,16.0,3.0,-100.00,NNW,330,12.0,19.0,56,-99.99,,,-99.99,,2013-03-21 00:02:00,
2013-03-20 19:11:00,15.0,3.0,-100.00,NNW,340,15.0,21.0,58,-99.99,,,-99.99,,2013-03-21 00:11:00,
2013-03-20 19:33:00,15.0,3.0,-100.00,NNW,340,15.0,21.0,58,-99.99,,,-99.99,,2013-03-21 00:33:00,
2013-03-20 19:42:00,15.0,3.0,-100.00,NNW,340,15.0,21.0,58,-99.99,,,-99.99,,2013-03-21 00:42:00,
2013-03-20 19:52:00,15.0,3.0,-100.00,NNW,340,15.0,21.0,58,-99.99,,,-99.99,,2013-03-21 00:52:00,
2013-03-20 20:02:00,15.0,3.0,-100.00,NNW,340,15.0,21.0,58,-99.99,,,-99.99,,2013-03-21 01:02:00,
2013-03-20 20:33:00,14.0,4.0,-100.00,North,350,6.0,14.0,63,-99.99,,,-99.99,,2013-03-21 01:33:00,
2013-03-20 20:42:00,14.0,4.0,-100.00,North,350,6.0,14.0,63,-99.99,,,-99.99,,2013-03-21 01:42:00,
2013-03-20 20:53:00,14.0,4.0,-100.00,North,350,6.0,14.0,63,-99.99,,,-99.99,,2013-03-21 01:53:00,
2013-03-20 21:02:00,14.0,4.0,-100.00,North,350,6.0,14.0,63,-99.99,,,-99.99,,2013-03-21 02:02:00,
2013-03-20 21:12:00,14.0,4.0,-100.00,North,350,6.0,14.0,63,-99.99,,,-99.99,,2013-03-21 02:12:00,
2013-03-20 21:33:00,14.0,5.0,-100.00,NNW,335,6.0,11.0,68,-99.99,,,-99.99,,2013-03-21 02:33:00,
2013-03-20 21:42:00,14.0,5.0,-100.00,NNW,335,6.0,11.0,68,-99.99,,,-99.99,,2013-03-21 02:42:00,
2013-03-20 21:52:00,14.0,5.0,-100.00,NNW,335,6.0,11.0,68,-99.99,,,-99.99,,2013-03-21 02:52:00,
2013-03-20 22:02:00,14.0,5.0,-100.00,NNW,335,6.0,11.0,68,-99.99,,,-99.99,,2013-03-21 03:02:00,
2013-03-20 22:12:00,14.0,5.0,-100.00,NNW,335,6.0,11.0,68,-99.99,,,-99.99,,2013-03-21 03:12:00,
2013-03-20 22:33:00,13.0,7.0,-100.00,NNW,330,7.0,11.0,75,-99.99,,,-99.99,,2013-03-21 03:33:00,
2013-03-20 22:43:00,13.0,7.0,-100.00,NNW,330,7.0,11.0,75,-99.99,,,-99.99,,2013-03-21 03:43:00,
2013-03-20 22:53:00,13.0,7.0,-100.00,NNW,330,7.0,11.0,75,-99.99,,,-99.99,,2013-03-21 03:53:00,
2013-03-20 23:03:00,13.0,7.0,-100.00,NNW,330,7.0,11.0,75,-99.99,,,-99.99,,2013-03-21 04:03:00,
2013-03-20 23:13:00,13.0,7.0,-100.00,NNW,330,7.0,11.0,75,-99.99,,,-99.99,,2013-03-21 04:13:00,
2013-03-20 23:33:00,13.0,8.0,-100.00,NNW,345,7.0,12.0,79,-99.99,,,-99.99,,2013-03-21 04:33:00,
2013-03-20 23:43:00,13.0,8.0,-100.00,NNW,345,7.0,12.0,79,-99.99,,,-99.99,,2013-03-21 04:43:00,
2013-03-20 23:53:00,13.0,8.0,-100.00,NNW,345,7.0,12.0,79,-99.99,,,-99.99,,2013-03-21 04:53:00,